CW5507 Weather Reports


time (UTC)temp
F
wind
direction
speed
knots
gust
knots
rain 1hr
in
rain 24hr
in
rain mn
in
humidity
%
barometer
mb
20260506070415 57 225 0.9 6.1 0.00 0.00 0.00 71 1012.3
20260506062334 58 225 0.9 5.2 0.00 0.00 0.00 70 1012.1
20260506061819 58 225 0.9 4.3 0.00 0.00 0.00 69 1012.1
20260506061311 58 225 0.9 4.3 0.00 0.00 0.00 69 1011.9
20260506060303 58 226 0.9 5.2 0.00 0.00 0.00 71 1011.9
20260506051115 60 227 0.9 7.0 0.00 0.00 0.00 64 1012.0
20260506050617 61 227 0.9 5.2 0.00 0.00 0.00 64 1012.0
20260506050108 61 227 0.9 5.2 0.00 0.00 0.00 63 1011.8
20260506044538 62 228 1.7 9.6 0.00 0.00 0.00 63 1011.5
20260506044028 62 233 0.9 9.6 0.00 0.00 0.00 62 1011.5
20260506043524 62 306 0.9 8.7 0.00 0.00 0.00 62 1011.5
20260506043024 62 0 0.9 7.8 0.00 0.00 0.00 61 1011.3
20260506042514 63 1 0.9 4.3 0.00 0.00 0.00 60 1011.3
20260506042008 63 2 0.9 5.2 0.00 0.00 0.00 60 1011.3
20260506041458 63 2 0.9 7.8 0.00 0.00 0.00 60 1012.7
20260506040928 63 2 0.9 5.2 0.00 0.00 0.00 60 1012.7
20260506035857 64 2 0.9 6.1 0.00 0.00 0.00 58 1012.3
20260506035347 64 2 0.9 6.1 0.00 0.00 0.00 58 1012.3
20260506034842 64 2 0.0 3.5 0.00 0.00 0.00 58 1012.3
20260506034324 65 2 0.0 2.6 0.00 0.00 0.00 57 1011.9
20260506033255 65 2 0.0 0.0 0.00 0.00 0.00 55 1011.9
20260506032748 66 2 0.0 0.9 0.00 0.00 0.00 55 1011.5
20260506032224 66 2 0.0 1.7 0.00 0.00 0.00 55 1011.5
20260506031718 66 2 0.9 7.0 0.00 0.00 0.00 54 1011.5
20260506031210 66 2 0.0 7.0 0.00 0.00 0.00 54 1012.4
20260506025656 67 4 0.0 0.9 0.00 0.00 0.00 51 1012.3
20260506025152 67 4 0.0 0.0 0.00 0.00 0.00 50 1012.3
20260506024654 67 4 0.0 0.9 0.00 0.00 0.00 48 1012.3
20260506024134 68 4 0.0 0.9 0.00 0.00 0.00 46 1011.8
20260506023626 69 4 0.0 0.0 0.00 0.00 0.00 44 1011.8
20260506022030 71 4 0.0 0.0 0.00 0.00 0.00 40 1011.5
20260506021526 71 4 0.0 0.0 0.00 0.00 0.00 40 1011.9
20260506021002 71 4 0.0 0.0 0.00 0.00 0.00 41 1011.9
20260506020454 72 4 0.0 0.0 0.00 0.00 0.00 40 1011.9
20260506015938 72 4 0.0 0.0 0.00 0.00 0.00 38 1011.7
20260506015411 72 4 0.0 0.0 0.00 0.00 0.00 38 1011.7
20260506014835 73 4 0.0 0.0 0.00 0.00 0.00 38 1011.7
20260506014332 73 4 0.0 0.0 0.00 0.00 0.00 36 1011.7
20260506013825 73 4 0.0 0.9 0.00 0.00 0.00 36 1011.7
20260506012747 73 4 0.0 3.5 0.00 0.00 0.00 34 1011.8
20260506012247 73 4 0.0 2.6 0.00 0.00 0.00 33 1011.8
20260506011743 73 4 0.0 0.9 0.00 0.00 0.00 33 1011.8
20260506011235 73 4 0.0 0.9 0.00 0.00 0.00 33 1011.6
20260506010216 73 4 0.0 3.5 0.00 0.00 0.00 37 1011.6
20260506005715 73 4 0.9 5.2 0.00 0.00 0.00 37 1011.6
20260506005216 74 4 1.7 5.2 0.00 0.00 0.00 37 1011.6
20260506004654 74 4 1.7 5.2 0.00 0.00 0.00 37 1011.6
20260506004133 74 4 1.7 5.2 0.00 0.00 0.00 35 1011.2
20260506003629 74 4 1.7 5.2 0.00 0.00 0.00 34 1011.2
20260506003126 75 4 2.6 5.2 0.00 0.00 0.00 33 1011.2
20260506002621 75 4 1.7 5.2 0.00 0.00 0.00 32 1011.0
20260506002121 75 4 0.9 3.5 0.00 0.00 0.00 31 1011.0
20260506001621 75 4 1.7 3.5 0.00 0.00 0.00 32 1010.7
20260506001117 75 4 0.9 4.3 0.00 0.00 0.00 32 1010.7
20260506000607 75 4 0.9 4.3 0.00 0.00 0.00 34 1010.7
20260506000105 75 4 0.9 5.2 0.00 0.00 0.00 33 1010.5
20260505235602 76 4 3.5 10.4 0.00 0.00 0.00 32 1010.5
20260505235100 76 4 5.2 10.4 0.00 0.00 0.00 31 1010.5
20260505234556 76 4 5.2 10.4 0.00 0.00 0.00 32 1010.5
20260505234056 77 4 3.5 10.4 0.00 0.00 0.00 31 1010.5
20260505233558 78 4 2.6 6.1 0.00 0.00 0.00 30 1010.5
20260505232553 78 4 0.0 4.3 0.00 0.00 0.00 28 1010.1
20260505232052 78 4 0.0 2.6 0.00 0.00 0.00 28 1010.1
20260505231543 79 4 0.9 2.6 0.00 0.00 0.00 28 1010.1
20260505231042 79 4 1.7 6.1 0.00 0.00 0.00 28 1010.1
20260505230543 78 4 1.7 6.1 0.00 0.00 0.00 27 1010.1
20260505230037 78 4 0.0 4.3 0.00 0.00 0.00 28 1010.0
20260505225523 78 4 0.0 0.9 0.00 0.00 0.00 27 1010.0
20260505225020 79 4 0.9 4.3 0.00 0.00 0.00 28 1010.0
20260505223459 80 4 1.7 5.2 0.00 0.00 0.00 26 1010.0
20260505222455 80 4 0.9 6.1 0.00 0.00 0.00 26 1009.6
20260505221952 80 4 0.0 3.5 0.00 0.00 0.00 25 1009.6
20260505221449 81 4 1.7 7.0 0.00 0.00 0.00 22 1009.1
20260505220917 83 4 3.5 7.0 0.00 0.00 0.00 22 1009.1
20260505220414 83 5 3.5 7.8 0.00 0.00 0.00 23 1009.1
20260505215907 84 4 2.6 7.8 0.00 0.00 0.00 23 1009.3
20260505215409 84 4 2.6 9.6 0.00 0.00 0.00 23 1009.3
20260505214906 84 4 0.9 9.6 0.00 0.00 0.00 25 1009.3
20260505214407 83 7 0.0 3.5 0.00 0.00 0.00 26 1009.2
20260505213907 82 7 0.9 6.1 0.00 0.00 0.00 25 1009.2
20260505213405 84 7 1.7 6.1 0.00 0.00 0.00 23 1009.2
20260505212855 84 7 1.7 7.0 0.00 0.00 0.00 26 1009.3
20260505210847 85 4 0.0 4.3 0.00 0.00 0.00 22 1009.1
20260505210337 85 4 1.7 6.1 0.00 0.00 0.00 24 1009.1
20260505205827 84 4 1.7 6.1 0.00 0.00 0.00 25 1009.1
20260505205327 83 4 1.7 5.2 0.00 0.00 0.00 23 1009.1
20260505204825 83 4 1.7 5.2 0.00 0.00 0.00 23 1009.1
20260505204321 84 4 3.5 9.6 0.00 0.00 0.00 24 1009.4
20260505203821 83 3 4.3 9.6 0.00 0.00 0.00 24 1009.4
20260505203316 81 6 2.6 7.0 0.00 0.00 0.00 25 1009.4
20260505202817 80 7 0.9 4.3 0.00 0.00 0.00 25 1009.1
20260505202307 81 7 0.9 3.5 0.00 0.00 0.00 23 1009.1
20260505201752 83 7 0.0 3.5 0.00 0.00 0.00 22 1009.1
20260505201251 85 7 0.0 3.5 0.00 0.00 0.00 22 1008.7
20260505200753 85 7 1.7 8.7 0.00 0.00 0.00 23 1008.7
20260505200221 86 7 2.6 8.7 0.00 0.00 0.00 23 1008.7
20260505194713 85 7 1.7 5.2 0.00 0.00 0.00 24 1009.0
20260505194157 84 7 2.6 5.2 0.00 0.00 0.00 26 1009.3
20260505193159 82 7 0.9 4.3 0.00 0.00 0.00 28 1009.3
20260505192646 83 7 0.9 4.3 0.00 0.00 0.00 27 1009.5
20260505192145 82 7 0.9 5.2 0.00 0.00 0.00 28 1009.5
20260505191638 82 7 1.7 5.2 0.00 0.00 0.00 26 1009.5
20260505191138 82 7 1.7 6.1 0.00 0.00 0.00 25 1009.5
20260505190129 80 0 2.6 7.0 0.00 0.00 0.00 29 1009.5
20260505185629 80 0 1.7 7.0 0.00 0.00 0.00 28 1009.9
20260505185123 79 0 0.0 6.1 0.00 0.00 0.00 28 1009.9
20260505184122 78 0 0.9 3.5 0.00 0.00 0.00 29 1009.7
20260505183623 79 0 0.9 4.3 0.00 0.00 0.00 27 1009.7
20260505183123 80 0 1.7 4.3 0.00 0.00 0.00 27 1009.7
20260505182609 81 0 2.6 5.2 0.00 0.00 0.00 26 1009.7
20260505182109 80 0 1.7 5.2 0.00 0.00 0.00 27 1009.7
20260505181608 80 0 1.7 5.2 0.00 0.00 0.00 27 1009.9
20260505181108 79 0 0.9 5.2 0.00 0.00 0.00 30 1009.9
20260505180606 78 0 0.0 1.7 0.00 0.00 0.00 30 1009.9
20260505180105 78 0 0.0 3.5 0.00 0.00 0.00 30 1010.0
20260505175546 78 0 0.9 4.3 0.00 0.00 0.00 30 1010.0
20260505175033 77 0 0.0 4.3 0.00 0.00 0.00 31 1010.0
20260505174521 76 0 0.0 3.5 0.00 0.00 0.00 33 1010.2
20260505174012 76 0 0.0 3.5 0.00 0.00 0.00 32 1010.2
20260505173458 75 0 0.0 2.6 0.00 0.00 0.00 35 1010.2
20260505172946 75 0 0.9 2.6 0.00 0.00 0.00 35 1010.2
20260505172437 74 0 0.0 2.6 0.00 0.00 0.00 36 1010.2
20260505171426 73 0 0.0 2.6 0.00 0.00 0.00 38 1010.6
20260505170920 72 0 0.0 0.9 0.00 0.00 0.00 41 1010.6
20260505170414 71 0 0.0 2.6 0.00 0.00 0.00 41 1010.6
20260505165910 70 0 0.0 3.5 0.00 0.00 0.00 42 1011.0
20260505165358 69 0 0.9 3.5 0.00 0.00 0.00 42 1011.0
20260505164850 69 0 0.9 3.5 0.00 0.00 0.00 42 1011.0
20260505164346 68 0 0.9 3.5 0.00 0.00 0.00 46 1011.2
20260505163834 67 0 0.9 4.3 0.00 0.00 0.00 47 1011.2
20260505163324 66 0 1.7 5.2 0.00 0.00 0.00 50 1011.2
20260505162306 64 0 0.9 5.2 0.00 0.00 0.00 55 1011.6
20260505160220 57 0 0.0 0.9 0.00 0.00 0.00 69 1011.8
20260505153120 49 0 0.0 0.9 0.00 0.00 0.00 85 1013.0
20260505152601 48 0 0.0 0.0 0.00 0.00 0.00 85 1013.0
20260505152102 47 0 0.0 0.0 0.00 0.00 0.00 85 1013.0
20260505151540 46 0 0.0 0.0 0.00 0.00 0.00 85 1012.3
20260505151035 46 0 0.0 0.0 0.00 0.00 0.00 85 1012.3
20260505150515 45 0 0.0 0.0 0.00 0.00 0.00 86 1012.3
20260505140148 41 0 0.0 0.0 0.00 0.00 0.00 85 1012.2
20260505124816 42 0 0.0 1.7 0.00 0.00 0.00 83 1011.2
20260505123759 42 0 0.0 0.0 0.00 0.00 0.00 82 1011.1
20260505123245 42 0 0.0 0.0 0.00 0.00 0.00 82 1011.1
20260505122730 42 0 0.0 0.0 0.00 0.00 0.00 82 1010.9
20260505122154 42 0 0.0 0.0 0.00 0.00 0.00 82 1010.9
20260505121055 43 0 0.0 0.0 0.00 0.00 0.00 81 1010.6
20260505120551 43 0 0.0 0.0 0.00 0.00 0.00 81 1010.6
20260505120031 43 0 0.0 0.0 0.00 0.00 0.00 82 1010.3
20260505115519 43 0 0.0 0.0 0.00 0.00 0.00 82 1010.3
20260505114455 44 0 0.0 0.0 0.00 0.00 0.00 81 1010.4
20260505113937 44 0 0.0 0.0 0.00 0.00 0.00 82 1010.4
20260505112852 44 0 0.0 0.0 0.00 0.00 0.00 80 1010.4
20260505111814 44 0 0.0 0.0 0.00 0.00 0.00 81 1010.4
20260505111303 44 0 0.0 0.0 0.00 0.00 0.00 80 1009.8
20260505110253 45 0 0.0 0.0 0.00 0.00 0.00 79 1009.8
20260505102103 47 0 0.0 0.0 0.00 0.00 0.00 76 1009.5
20260505101555 47 0 0.0 0.0 0.00 0.00 0.00 76 1009.0
20260505101026 47 0 0.0 3.5 0.00 0.00 0.00 74 1009.0
20260505095453 49 0 0.0 0.0 0.00 0.00 0.00 72 1008.7
20260505094933 49 0 0.0 0.0 0.00 0.00 0.00 72 1008.7
20260505094414 50 0 0.0 0.0 0.00 0.00 0.00 72 1008.5
20260505093905 50 0 0.0 0.0 0.00 0.00 0.00 72 1008.5
20260505093349 51 0 0.0 0.0 0.00 0.00 0.00 71 1008.5
20260505092844 51 0 0.0 5.2 0.00 0.00 0.00 71 1008.5
20260505091824 51 2 0.0 0.9 0.00 0.00 0.00 74 1008.5
20260505091317 51 2 0.0 0.0 0.00 0.00 0.00 74 1008.3
20260505090809 51 2 0.0 3.5 0.00 0.00 0.00 74 1008.3
20260505090305 51 2 0.0 3.5 0.00 0.00 0.00 74 1008.3
20260505085752 51 2 0.0 3.5 0.00 0.00 0.00 74 1008.3
20260505085236 51 2 0.0 3.5 0.00 0.00 0.00 74 1008.3
20260505084728 50 2 0.0 4.3 0.00 0.00 0.00 72 1008.3
20260505084208 50 2 0.0 4.3 0.00 0.00 0.00 72 1008.3
20260505083650 51 2 0.0 0.0 0.00 0.00 0.00 70 1008.3
20260505083143 51 2 0.0 0.0 0.00 0.00 0.00 71 1008.3
20260505082623 51 2 0.0 6.1 0.00 0.00 0.00 71 1008.3
20260505081600 51 4 0.0 0.0 0.00 0.00 0.00 68 1008.0
20260505081050 51 4 0.0 5.2 0.00 0.00 0.00 70 1008.0
20260505080545 52 4 0.9 5.2 0.00 0.00 0.00 72 1008.0
20260505075530 52 6 0.0 0.9 0.00 0.00 0.00 69 1008.0
20260505075027 52 6 0.0 2.6 0.00 0.00 0.00 70 1008.0
20260505074510 52 6 0.0 2.6 0.00 0.00 0.00 70 1007.9
20260505073956 52 6 0.0 4.3 0.00 0.00 0.00 71 1007.9
20260505073454 52 6 0.0 4.3 0.00 0.00 0.00 70 1007.9
20260505072916 52 7 0.0 0.0 0.00 0.00 0.00 69 1007.9
20260505072411 52 7 0.0 2.6 0.00 0.00 0.00 68 1007.9
20260505071407 53 7 0.0 0.0 0.00 0.00 0.00 67 1007.9
20260505070855 53 7 0.0 0.0 0.00 0.00 0.00 67 1007.9